Location: Shannon
(40.5500°S, 175.4167°E)
Time: 22:03:53
(UTC+00:00)

Cosmos 1707 Rocket - Pass Details

Date: 17 November 2025
Orbit: 599 x 623 km, 82.5° (Epoch: 06 December)

Event Time Altitude Azimuth Distance (km) Brightness Sun altitude
Rises 14:28:02 0° 191° (S) 2,890 7.6 -21.5°
Reaches altitude 10° 14:30:16 10° 193° (SSW) 1,979 6.7 -21.2°
Maximum altitude 14:34:38 69° 275° (W) 657 3.4 -20.7°
Enters shadow 14:35:23 56° 331° (NNW) 732 3.5 -20.6°
